Location: Edinburgh
(55.9500°N, 3.1600°W)
Time: 12:13:03
(UTC+01:00)

Envisat - Pass Details

Date: 16 October 2017
Orbit: 764 x 766 km, 98.2° (Epoch: 18 October)

Event Time Altitude Azimuth Distance (km) Brightness Sun altitude
Exits shadow 20:45:37 30° 170° (S) 1,362 4.0 -22.5°
Maximum altitude 20:48:14 81° 255° (WSW) 782 3.0 -22.8°
Drops below altitude 10° 20:53:22 10° 343° (NNW) 2,316 5.9 -23.5°
Sets 20:55:41 0° 344° (NNW) 3,247 6.7 -23.8°
